Time,TemperatureF,DewpointF,PressureIn,WindDirection,WindDirectionDegrees,WindSpeedMPH,WindSpeedGustMPH,Humidity,HourlyPrecipIn,Conditions,Clouds,dailyrainin,SoftwareType,DateUTC
2013-02-18 00:02:00,15.0,0.0,29.89,NW,307,2.0,8.0,51,0.00,,,0.03,,2013-02-18 05:02:00,
2013-02-18 00:11:00,15.0,0.0,29.89,NW,307,2.0,8.0,51,0.00,,,0.03,,2013-02-18 05:11:00,
2013-02-18 00:21:00,15.0,0.0,29.89,WSW,255,1.0,10.0,51,0.00,,,0.00,,2013-02-18 05:21:00,
2013-02-18 00:32:00,15.0,0.0,29.90,WNW,300,1.0,10.0,51,0.00,,,0.00,,2013-02-18 05:32:00,
2013-02-18 00:42:00,15.0,0.0,29.90,WNW,300,1.0,10.0,51,0.00,,,0.00,,2013-02-18 05:42:00,
2013-02-18 00:52:00,15.0,0.0,29.90,WSW,247,4.0,9.0,51,0.00,,,0.00,,2013-02-18 05:52:00,
2013-02-18 01:02:00,15.0,1.0,29.91,WNW,282,6.0,17.0,52,0.00,,,0.00,,2013-02-18 06:02:00,
2013-02-18 01:11:00,15.0,1.0,29.91,WNW,282,6.0,17.0,52,0.00,,,0.00,,2013-02-18 06:11:00,
2013-02-18 01:21:00,15.0,1.0,29.91,NW,305,2.0,7.0,53,0.00,,,0.00,,2013-02-18 06:21:00,
2013-02-18 01:32:00,15.0,1.0,29.91,WNW,285,2.0,10.0,52,0.00,,,0.00,,2013-02-18 06:32:00,
2013-02-18 01:42:00,15.0,1.0,29.93,WNW,298,4.0,11.0,53,0.00,,,0.00,,2013-02-18 06:42:00,
2013-02-18 01:51:00,15.0,1.0,29.93,WNW,298,4.0,11.0,53,0.00,,,0.00,,2013-02-18 06:51:00,
2013-02-18 02:01:00,15.0,1.0,29.93,West,265,2.0,7.0,53,0.00,,,0.00,,2013-02-18 07:01:00,
2013-02-18 02:11:00,15.0,1.0,29.93,West,265,2.0,7.0,53,0.00,,,0.00,,2013-02-18 07:11:00,
2013-02-18 02:22:00,15.0,1.0,29.93,West,274,2.0,5.0,53,0.00,,,0.00,,2013-02-18 07:22:00,
2013-02-18 02:32:00,15.0,1.0,29.93,WSW,255,2.0,12.0,54,0.00,,,0.00,,2013-02-18 07:32:00,
2013-02-18 02:42:00,15.0,1.0,29.93,WSW,255,2.0,12.0,54,0.00,,,0.00,,2013-02-18 07:42:00,
2013-02-18 02:51:00,15.0,1.0,29.94,West,259,3.0,8.0,54,0.00,,,0.00,,2013-02-18 07:51:00,
2013-02-18 03:01:00,15.0,1.0,29.94,West,267,4.0,12.0,54,0.00,,,0.00,,2013-02-18 08:01:00,
2013-02-18 03:11:00,15.0,1.0,29.94,West,267,4.0,12.0,54,0.00,,,0.00,,2013-02-18 08:11:00,
2013-02-18 03:21:00,15.0,1.0,29.94,West,271,5.0,13.0,53,0.00,,,0.00,,2013-02-18 08:21:00,
2013-02-18 03:32:00,14.0,0.0,29.94,West,269,3.0,12.0,54,0.00,,,0.00,,2013-02-18 08:32:00,
2013-02-18 03:42:00,14.0,0.0,29.94,West,269,3.0,12.0,54,0.00,,,0.00,,2013-02-18 08:42:00,
2013-02-18 03:52:00,14.0,0.0,29.95,SW,229,1.0,14.0,54,0.00,,,0.00,,2013-02-18 08:52:00,
2013-02-18 04:03:00,14.0,1.0,29.96,West,267,2.0,15.0,55,0.00,,,0.00,,2013-02-18 09:03:00,
2013-02-18 04:11:00,14.0,1.0,29.96,West,267,2.0,15.0,55,0.00,,,0.00,,2013-02-18 09:11:00,
2013-02-18 04:22:00,14.0,1.0,29.97,West,265,2.0,10.0,55,0.00,,,0.00,,2013-02-18 09:22:00,
2013-02-18 04:32:00,14.0,1.0,29.97,West,281,4.0,9.0,55,0.00,,,0.00,,2013-02-18 09:32:00,
2013-02-18 04:42:00,14.0,1.0,29.97,West,281,4.0,9.0,55,0.00,,,0.00,,2013-02-18 09:42:00,
2013-02-18 04:51:00,14.0,1.0,30.00,West,277,4.0,13.0,55,0.00,,,0.00,,2013-02-18 09:51:00,
2013-02-18 05:01:00,14.0,1.0,30.00,West,281,2.0,8.0,56,0.00,,,0.00,,2013-02-18 10:01:00,
2013-02-18 05:11:00,14.0,1.0,30.00,West,281,2.0,8.0,56,0.00,,,0.00,,2013-02-18 10:11:00,
2013-02-18 05:22:00,14.0,1.0,30.00,WNW,282,3.0,8.0,56,0.00,,,0.00,,2013-02-18 10:22:00,
2013-02-18 05:32:00,14.0,1.0,30.01,WNW,284,1.0,9.0,55,0.00,,,0.00,,2013-02-18 10:32:00,
2013-02-18 05:42:00,14.0,1.0,30.01,WNW,284,1.0,9.0,55,0.00,,,0.00,,2013-02-18 10:42:00,
2013-02-18 05:53:00,14.0,1.0,30.02,SW,225,1.0,6.0,55,0.00,,,0.00,,2013-02-18 10:53:00,
2013-02-18 06:01:00,14.0,1.0,30.03,WNW,285,3.0,10.0,55,0.00,,,0.00,,2013-02-18 11:01:00,
2013-02-18 06:11:00,14.0,1.0,30.03,WNW,285,3.0,10.0,55,0.00,,,0.00,,2013-02-18 11:11:00,
2013-02-18 06:22:00,14.0,1.0,30.04,NW,305,2.0,13.0,55,0.00,,,0.00,,2013-02-18 11:22:00,
2013-02-18 06:32:00,14.0,1.0,30.05,West,261,3.0,11.0,55,0.00,,,0.00,,2013-02-18 11:32:00,
2013-02-18 06:42:00,14.0,1.0,30.05,West,261,3.0,11.0,55,0.00,,,0.00,,2013-02-18 11:42:00,
2013-02-18 06:52:00,14.0,1.0,30.07,West,279,3.0,10.0,55,0.00,,,0.00,,2013-02-18 11:52:00,
2013-02-18 07:02:00,14.0,1.0,30.08,West,279,3.0,11.0,56,0.00,,,0.00,,2013-02-18 12:02:00,
2013-02-18 07:12:00,14.0,1.0,30.08,West,279,3.0,11.0,56,0.00,,,0.00,,2013-02-18 12:12:00,
2013-02-18 07:22:00,14.0,1.0,30.08,West,264,3.0,12.0,56,0.00,,,0.00,,2013-02-18 12:22:00,
2013-02-18 07:32:00,14.0,1.0,30.08,NW,306,1.0,5.0,56,0.00,,,0.00,,2013-02-18 12:32:00,
2013-02-18 07:42:00,14.0,1.0,30.08,NW,306,1.0,5.0,56,0.00,,,0.00,,2013-02-18 12:42:00,
2013-02-18 07:52:00,15.0,2.0,30.09,SW,230,3.0,6.0,55,0.00,,,0.00,,2013-02-18 12:52:00,
2013-02-18 08:03:00,15.0,2.0,30.09,SW,230,3.0,6.0,55,0.00,,,0.00,,2013-02-18 13:03:00,
2013-02-18 08:12:00,15.0,2.0,30.09,SW,230,3.0,6.0,55,0.00,,,0.00,,2013-02-18 13:12:00,
2013-02-18 08:22:00,17.0,3.0,30.10,WNW,287,3.0,8.0,53,0.00,,,0.00,,2013-02-18 13:22:00,
2013-02-18 08:42:00,18.0,3.0,30.09,WNW,296,4.0,11.0,52,0.00,,,0.00,,2013-02-18 13:42:00,
2013-02-18 08:53:00,19.0,4.0,30.10,WNW,286,3.0,9.0,51,0.00,,,0.00,,2013-02-18 13:53:00,
2013-02-18 09:02:00,20.0,4.0,30.11,WNW,282,6.0,10.0,48,0.00,,,0.00,,2013-02-18 14:02:00,
2013-02-18 09:11:00,20.0,4.0,30.11,WNW,282,6.0,10.0,48,0.00,,,0.00,,2013-02-18 14:11:00,
2013-02-18 09:22:00,20.0,3.0,30.11,WSW,256,3.0,9.0,47,0.00,,,0.00,,2013-02-18 14:22:00,
2013-02-18 09:33:00,21.0,4.0,30.11,North,6,3.0,11.0,46,0.00,,,0.00,,2013-02-18 14:33:00,
2013-02-18 09:42:00,21.0,4.0,30.11,North,6,3.0,11.0,46,0.00,,,0.00,,2013-02-18 14:42:00,
2013-02-18 09:53:00,22.0,4.0,30.12,WNW,290,2.0,8.0,46,0.00,,,0.00,,2013-02-18 14:53:00,
2013-02-18 10:02:00,23.0,5.0,30.13,NW,318,1.0,10.0,45,0.00,,,0.00,,2013-02-18 15:02:00,
2013-02-18 10:12:00,23.0,5.0,30.13,NW,318,1.0,10.0,45,0.00,,,0.00,,2013-02-18 15:12:00,
2013-02-18 10:22:00,23.0,4.0,30.13,West,270,3.0,8.0,44,0.00,,,0.00,,2013-02-18 15:22:00,
2013-02-18 10:32:00,25.0,5.0,30.14,West,277,3.0,6.0,42,0.00,,,0.00,,2013-02-18 15:32:00,
2013-02-18 10:42:00,25.0,5.0,30.14,West,277,3.0,6.0,42,0.00,,,0.00,,2013-02-18 15:42:00,
2013-02-18 10:52:00,24.0,4.0,30.14,West,270,3.0,9.0,41,0.00,,,0.00,,2013-02-18 15:52:00,
2013-02-18 11:03:00,25.0,4.0,30.14,SSW,207,1.0,12.0,40,0.00,,,0.00,,2013-02-18 16:03:00,
2013-02-18 11:12:00,25.0,4.0,30.14,SSW,207,1.0,12.0,40,0.00,,,0.00,,2013-02-18 16:12:00,
2013-02-18 11:22:00,26.0,4.0,30.14,NNW,341,2.0,5.0,39,0.00,,,0.00,,2013-02-18 16:22:00,
2013-02-18 11:32:00,27.0,4.0,30.14,WSW,256,2.0,6.0,37,0.00,,,0.00,,2013-02-18 16:32:00,
2013-02-18 11:42:00,27.0,4.0,30.14,WSW,256,2.0,6.0,37,0.00,,,0.00,,2013-02-18 16:42:00,
2013-02-18 11:52:00,27.0,7.0,30.14,WSW,242,3.0,14.0,42,0.00,,,0.00,,2013-02-18 16:52:00,
2013-02-18 12:04:00,27.0,6.0,30.14,WNW,285,3.0,10.0,40,0.00,,,0.00,,2013-02-18 17:04:00,
2013-02-18 12:12:00,27.0,6.0,30.14,WNW,285,3.0,10.0,40,0.00,,,0.00,,2013-02-18 17:12:00,
2013-02-18 12:22:00,27.0,4.0,30.14,West,262,6.0,17.0,37,0.00,,,0.00,,2013-02-18 17:22:00,
2013-02-18 12:32:00,29.0,7.0,30.14,WNW,286,0.0,7.0,38,0.00,,,0.00,,2013-02-18 17:32:00,
2013-02-18 12:42:00,29.0,7.0,30.14,WNW,286,0.0,7.0,38,0.00,,,0.00,,2013-02-18 17:42:00,
2013-02-18 12:52:00,29.0,7.0,30.13,West,273,3.0,10.0,38,0.00,,,0.00,,2013-02-18 17:52:00,
2013-02-18 13:02:00,29.0,7.0,30.13,SSW,211,1.0,10.0,39,0.00,,,0.00,,2013-02-18 18:02:00,
2013-02-18 13:23:00,29.0,7.0,30.13,West,262,2.0,8.0,39,0.00,,,0.00,,2013-02-18 18:23:00,
2013-02-18 13:33:00,30.0,7.0,30.12,WNW,282,4.0,10.0,37,0.00,,,0.00,,2013-02-18 18:33:00,
2013-02-18 13:42:00,30.0,7.0,30.12,WNW,282,4.0,10.0,37,0.00,,,0.00,,2013-02-18 18:42:00,
2013-02-18 13:52:00,30.0,7.0,30.12,West,278,3.0,10.0,37,0.00,,,0.00,,2013-02-18 18:52:00,
2013-02-18 14:03:00,30.0,6.0,30.11,West,276,2.0,10.0,36,0.00,,,0.00,,2013-02-18 19:03:00,
2013-02-18 14:12:00,30.0,6.0,30.11,West,276,2.0,10.0,36,0.00,,,0.00,,2013-02-18 19:12:00,
2013-02-18 14:22:00,30.0,6.0,30.11,West,276,2.0,10.0,36,0.00,,,0.00,,2013-02-18 19:22:00,
2013-02-18 14:33:00,31.0,7.0,30.11,WNW,292,1.0,8.0,35,0.00,,,0.00,,2013-02-18 19:33:00,
2013-02-18 14:42:00,31.0,7.0,30.11,WNW,292,1.0,8.0,35,0.00,,,0.00,,2013-02-18 19:42:00,
2013-02-18 14:52:00,31.0,5.0,30.11,WSW,242,2.0,6.0,33,0.00,,,0.00,,2013-02-18 19:52:00,
2013-02-18 15:03:00,31.0,7.0,30.10,West,264,2.0,10.0,35,0.00,,,0.00,,2013-02-18 20:03:00,
2013-02-18 15:12:00,31.0,7.0,30.10,West,264,2.0,10.0,35,0.00,,,0.00,,2013-02-18 20:12:00,
2013-02-18 15:23:00,31.0,7.0,30.11,West,262,3.0,8.0,36,0.00,,,0.00,,2013-02-18 20:23:00,
2013-02-18 15:33:00,32.0,7.0,30.11,WSW,242,3.0,9.0,34,0.00,,,0.00,,2013-02-18 20:33:00,
2013-02-18 15:42:00,32.0,7.0,30.11,WSW,242,3.0,9.0,34,0.00,,,0.00,,2013-02-18 20:42:00,
2013-02-18 15:52:00,32.0,7.0,30.11,WSW,250,2.0,8.0,35,0.00,,,0.00,,2013-02-18 20:52:00,
2013-02-18 16:03:00,31.0,7.0,30.11,SW,235,4.0,12.0,35,0.00,,,0.00,,2013-02-18 21:03:00,
2013-02-18 16:12:00,31.0,7.0,30.11,SW,235,4.0,12.0,35,0.00,,,0.00,,2013-02-18 21:12:00,
2013-02-18 16:22:00,31.0,6.0,30.11,West,264,2.0,6.0,34,0.00,,,0.00,,2013-02-18 21:22:00,
2013-02-18 16:32:00,31.0,6.0,30.11,West,278,3.0,9.0,34,0.00,,,0.00,,2013-02-18 21:32:00,
2013-02-18 16:43:00,31.0,6.0,30.11,West,278,3.0,9.0,34,0.00,,,0.00,,2013-02-18 21:43:00,
2013-02-18 16:53:00,31.0,7.0,30.11,WSW,256,2.0,9.0,35,0.00,,,0.00,,2013-02-18 21:53:00,
2013-02-18 17:03:00,31.0,7.0,30.11,WSW,243,3.0,7.0,35,0.00,,,0.00,,2013-02-18 22:03:00,
2013-02-18 17:12:00,31.0,7.0,30.11,WSW,250,1.0,8.0,36,0.00,,,0.00,,2013-02-18 22:12:00,
2013-02-18 17:22:00,31.0,7.0,30.11,WSW,250,1.0,8.0,36,0.00,,,0.00,,2013-02-18 22:22:00,
2013-02-18 17:33:00,30.0,7.0,30.11,West,279,1.0,3.0,37,0.00,,,0.00,,2013-02-18 22:33:00,
2013-02-18 17:43:00,30.0,7.0,30.11,West,279,1.0,3.0,37,0.00,,,0.00,,2013-02-18 22:43:00,
2013-02-18 17:53:00,30.0,8.0,30.12,West,281,0.0,3.0,38,0.00,,,0.00,,2013-02-18 22:53:00,
2013-02-18 18:02:00,30.0,8.0,30.12,WNW,285,0.0,3.0,38,0.00,,,0.00,,2013-02-18 23:02:00,
2013-02-18 18:12:00,30.0,8.0,30.12,WNW,285,0.0,3.0,38,0.00,,,0.00,,2013-02-18 23:12:00,
2013-02-18 18:23:00,29.0,8.0,30.12,WNW,292,0.0,3.0,40,0.00,,,0.00,,2013-02-18 23:23:00,
2013-02-18 18:33:00,28.0,8.0,30.12,WNW,292,0.0,1.0,43,0.00,,,0.00,,2013-02-18 23:33:00,
2013-02-18 18:43:00,28.0,8.0,30.12,WNW,292,0.0,1.0,43,0.00,,,0.00,,2013-02-18 23:43:00,
2013-02-18 18:53:00,28.0,8.0,30.14,WNW,292,0.0,1.0,42,0.00,,,0.00,,2013-02-18 23:53:00,
2013-02-18 19:03:00,28.0,8.0,30.14,WNW,292,0.0,1.0,42,0.00,,,0.00,,2013-02-19 00:03:00,
2013-02-18 19:12:00,28.0,8.0,30.14,WNW,292,0.0,1.0,42,0.00,,,0.00,,2013-02-19 00:12:00,
2013-02-18 19:22:00,28.0,8.0,30.14,WNW,292,0.0,1.0,42,0.00,,,0.00,,2013-02-19 00:22:00,
2013-02-18 19:34:00,28.0,8.0,30.14,WNW,292,0.0,0.0,42,0.00,,,0.00,,2013-02-19 00:34:00,
2013-02-18 19:43:00,28.0,8.0,30.14,WNW,292,0.0,0.0,42,0.00,,,0.00,,2013-02-19 00:43:00,
2013-02-18 19:53:00,28.0,8.0,30.14,WNW,292,0.0,0.0,43,0.00,,,0.00,,2013-02-19 00:53:00,
2013-02-18 20:03:00,27.0,5.0,30.14,WNW,292,0.0,0.0,38,0.00,,,0.00,,2013-02-19 01:03:00,
2013-02-18 20:14:00,27.0,5.0,30.14,WNW,292,0.0,0.0,38,0.00,,,0.00,,2013-02-19 01:14:00,
2013-02-18 20:24:00,27.0,5.0,30.13,WNW,292,0.0,0.0,39,0.00,,,0.00,,2013-02-19 01:24:00,
2013-02-18 20:34:00,27.0,5.0,30.14,WNW,292,0.0,0.0,39,0.00,,,0.00,,2013-02-19 01:34:00,
2013-02-18 20:44:00,27.0,5.0,30.14,WNW,292,0.0,0.0,39,0.00,,,0.00,,2013-02-19 01:44:00,
2013-02-18 20:54:00,27.0,5.0,30.14,WNW,292,0.0,0.0,39,0.00,,,0.00,,2013-02-19 01:54:00,
2013-02-18 21:03:00,27.0,5.0,30.14,WNW,292,0.0,0.0,39,0.00,,,0.00,,2013-02-19 02:03:00,
2013-02-18 21:14:00,27.0,5.0,30.14,WNW,292,0.0,0.0,39,0.00,,,0.00,,2013-02-19 02:14:00,
2013-02-18 21:23:00,27.0,5.0,30.14,WNW,292,0.0,0.0,38,0.00,,,0.00,,2013-02-19 02:23:00,
2013-02-18 21:34:00,27.0,8.0,30.14,WNW,292,0.0,0.0,43,0.00,,,0.00,,2013-02-19 02:34:00,
2013-02-18 21:43:00,27.0,8.0,30.14,WNW,292,0.0,0.0,43,0.00,,,0.00,,2013-02-19 02:43:00,
2013-02-18 21:55:00,27.0,7.0,30.14,WNW,292,0.0,0.0,42,0.00,,,0.00,,2013-02-19 02:55:00,
2013-02-18 22:06:00,26.0,7.0,30.14,WNW,292,0.0,0.0,44,0.00,,,0.00,,2013-02-19 03:06:00,
2013-02-18 22:15:00,26.0,7.0,30.14,WNW,292,0.0,0.0,44,0.00,,,0.00,,2013-02-19 03:15:00,
2013-02-18 22:24:00,26.0,7.0,30.13,WNW,292,0.0,0.0,44,0.00,,,0.00,,2013-02-19 03:24:00,
2013-02-18 22:35:00,26.0,8.0,30.13,WNW,292,0.0,1.0,46,0.00,,,0.00,,2013-02-19 03:35:00,
2013-02-18 22:44:00,26.0,8.0,30.13,WNW,292,0.0,1.0,46,0.00,,,0.00,,2013-02-19 03:44:00,
2013-02-18 22:53:00,26.0,9.0,30.14,SW,222,0.0,2.0,49,0.00,,,0.00,,2013-02-19 03:53:00,
2013-02-18 23:02:00,27.0,11.0,30.14,WSW,245,1.0,5.0,50,0.00,,,0.00,,2013-02-19 04:02:00,
2013-02-18 23:14:00,27.0,11.0,30.14,WSW,245,1.0,5.0,50,0.00,,,0.00,,2013-02-19 04:14:00,
2013-02-18 23:23:00,27.0,11.0,30.14,SW,220,0.0,4.0,50,0.00,,,0.00,,2013-02-19 04:23:00,
2013-02-18 23:33:00,28.0,11.0,30.14,WSW,240,0.0,3.0,49,0.00,,,0.00,,2013-02-19 04:33:00,
2013-02-18 23:44:00,28.0,11.0,30.14,WSW,240,0.0,3.0,49,0.00,,,0.00,,2013-02-19 04:44:00,
2013-02-18 23:53:00,28.0,11.0,30.14,SW,235,0.0,3.0,49,0.00,,,0.00,,2013-02-19 04:53:00,